Overview Statistics Trail Chart Weather Telemetry Raw packets
 

This is the latest recevied weather packets stored in our database for station/object WA6ODQ-13. If no packets are shown the sender has not sent any weather packets the latest 10 day(s).

<< 51 52 53 54 55 56 57 >>
Time Temp. Humidity Pressure Rain* Wind** Luminosity Snow
1788322413 17.78° C 72% 1014.4 hPa 0 mm - 0 W/m² -
1788322107 17.78° C 72% 1014.2 hPa 0 mm - 0 W/m² -
1788321803 17.78° C 72% 1014.1 hPa 0 mm - 0 W/m² -
1788321501 18.33° C 71% 1014.1 hPa 0 mm - 0 W/m² -
1788321197 18.33° C 71% 1014.2 hPa 0 mm - 0 W/m² -
1788320895 18.33° C 71% 1014 hPa 0 mm - 0 W/m² -
1788320591 18.33° C 69% 1014 hPa 0 mm - 0 W/m² -
1788320289 18.33° C 69% 1013.9 hPa 0 mm - 0 W/m² -
1788319984 18.33° C 69% 1013.9 hPa 0 mm - 0 W/m² -
1788319683 18.33° C 68% 1013.9 hPa 0 mm - 0 W/m² -
1788319378 18.33° C 67% 1013.7 hPa 0 mm - 0 W/m² -
1788319077 18.89° C 66% 1013.7 hPa 0 mm - 0 W/m² -
1788318774 18.89° C 66% 1013.5 hPa 0 mm - 0 W/m² -
1788318469 18.89° C 67% 1013.6 hPa 0 mm - 0 W/m² -
1788318164 18.89° C 67% 1013.4 hPa 0 mm - 0 W/m² -
1788317862 18.89° C 69% 1013.5 hPa 0 mm - 0 W/m² -
1788317557 18.89° C 69% 1013.4 hPa 0 mm - 0 W/m² -
1788317247 18.89° C 68% 1013.4 hPa 0 mm - 1 W/m² -
1788316942 18.89° C 67% 1013.5 hPa 0 mm - 2 W/m² -
1788316638 19.44° C 64% 1013.4 hPa 0 mm - 3 W/m² -
1788316333 19.44° C 64% 1013.2 hPa 0 mm - 5 W/m² -
1788316033 19.44° C 65% 1013.3 hPa 0 mm - 6 W/m² -
1788315728 20° C 63% 1013.3 hPa 0 mm - 10 W/m² -
1788315423 20° C 62% 1013.1 hPa 0 mm - 12 W/m² -
1788315118 20° C 63% 1013.2 hPa 0 mm - 16 W/m² -

* Rain latest hour (hover to see other rain measurements)
** Current wind speed in m/s (hover to see current wind gust speed)